JST711 YPAD-YMML

Flight info

Callsign JST711
Flight time N/A
Altitude 35000
Route AD V255 BENDO Y12 ARBEY H119 ML
Aircraft A321/M-SDE3FGHIRWY/LB1

Departure

Time 2026-05-04 09:20
Airport Adelaide International Airport (YPAD)

Arrival

Time N/A
Airport Melbourne Airport (YMML)
Time Latitude Longitude Altitude Speed Heading
2026-05-04 09:09 -34.93982 138.53777 30 ft 0 kts 320°
2026-05-04 09:14 -34.94032 138.53828 30 ft 0 kts 320°
2026-05-04 09:15 -34.94030 138.53828 30 ft 1 kts 339°
2026-05-04 09:17 -34.93969 138.54213 28 ft 0 kts 139°
2026-05-04 09:18 -34.93971 138.54215 28 ft 1 kts 139°
2026-05-04 09:18 -34.93978 138.54222 29 ft 1 kts 139°
2026-05-04 09:18 -34.93988 138.54233 30 ft 4 kts 139°
2026-05-04 09:18 -34.94030 138.54276 31 ft 12 kts 140°
2026-05-04 09:19 -34.94100 138.54275 28 ft 14 kts 228°
2026-05-04 09:19 -34.94260 138.54041 27 ft 69 kts 230°
2026-05-04 09:19 -34.94708 138.53390 26 ft 129 kts 230°
2026-05-04 09:19 -34.95385 138.52401 124 ft 165 kts 229°
2026-05-04 09:20 -34.96100 138.51343 833 ft 161 kts 231°
2026-05-04 09:20 -34.96829 138.50255 1430 ft 172 kts 231°
2026-05-04 09:20 -34.97625 138.49057 1832 ft 193 kts 231°
2026-05-04 09:20 -34.98531 138.47682 1970 ft 226 kts 231°
2026-05-04 09:21 -34.99604 138.46028 2092 ft 265 kts 232°
2026-05-04 09:21 -35.00816 138.44179 2540 ft 293 kts 231°
2026-05-04 09:21 -35.02236 138.42344 3386 ft 301 kts 217°
2026-05-04 09:21 -35.04183 138.41392 4247 ft 309 kts 188°
2026-05-04 09:22 -35.06334 138.41763 5105 ft 321 kts 160°
2026-05-04 09:22 -35.08260 138.43200 5881 ft 330 kts 144°
2026-05-04 09:22 -35.09809 138.45293 6530 ft 342 kts 121°
2026-05-04 09:22 -35.10492 138.48101 7155 ft 352 kts 97°
2026-05-04 09:23 -35.10447 138.51113 7824 ft 358 kts 85°
2026-05-04 09:23 -35.10383 138.54144 8480 ft 358 kts 100°
2026-05-04 09:23 -35.10656 138.56125 8920 ft 359 kts 103°
2026-05-04 09:23 -35.11116 138.59139 9586 ft 363 kts 104°
2026-05-04 09:25 -35.14403 138.81011 13912 ft 384 kts 105°
2026-05-04 09:25 -35.14871 138.84228 14452 ft 387 kts 105°
2026-05-04 09:26 -35.15335 138.87482 14992 ft 390 kts 104°
2026-05-04 09:26 -35.15802 138.90770 15498 ft 394 kts 104°
2026-05-04 09:26 -35.16277 138.94088 16011 ft 398 kts 105°
2026-05-04 09:26 -35.16758 138.97435 16547 ft 402 kts 105°
2026-05-04 09:27 -35.17244 139.00811 17075 ft 405 kts 105°
2026-05-04 09:27 -35.17735 139.04216 17607 ft 408 kts 105°
2026-05-04 09:27 -35.18228 139.07641 18126 ft 412 kts 105°
2026-05-04 09:27 -35.18727 139.11099 18542 ft 415 kts 105°
2026-05-04 09:28 -35.19224 139.14588 18999 ft 418 kts 105°
2026-05-04 09:28 -35.19723 139.18102 19478 ft 421 kts 105°
2026-05-04 09:28 -35.20226 139.21635 19953 ft 423 kts 105°
2026-05-04 09:28 -35.20731 139.25189 20421 ft 425 kts 105°
2026-05-04 09:29 -35.21238 139.28764 20869 ft 428 kts 105°
2026-05-04 09:29 -35.21747 139.32356 21307 ft 430 kts 105°
2026-05-04 09:29 -35.22255 139.35973 21735 ft 433 kts 105°
2026-05-04 09:29 -35.22760 139.39610 22173 ft 435 kts 105°
2026-05-04 09:30 -35.23268 139.43259 22622 ft 436 kts 105°
2026-05-04 09:30 -35.23780 139.46925 23046 ft 438 kts 105°
2026-05-04 09:30 -35.24404 139.50568 23446 ft 436 kts 112°
2026-05-04 09:30 -35.25460 139.54020 23810 ft 432 kts 120°
2026-05-04 09:31 -35.26717 139.57362 23992 ft 434 kts 120°
2026-05-04 09:31 -35.27978 139.60718 24038 ft 434 kts 120°
2026-05-04 09:31 -35.29232 139.64079 24040 ft 434 kts 120°
2026-05-04 09:31 -35.30481 139.67442 24040 ft 434 kts 120°
2026-05-04 09:32 -35.31729 139.70810 24094 ft 436 kts 120°
2026-05-04 09:32 -35.32981 139.74192 24432 ft 438 kts 120°
2026-05-04 09:34 -35.41948 139.98494 26545 ft 456 kts 120°
2026-05-04 09:34 -35.43259 140.02052 26827 ft 459 kts 120°
2026-05-04 09:34 -35.44573 140.05633 27104 ft 462 kts 119°
2026-05-04 09:34 -35.45877 140.09187 27368 ft 464 kts 119°
2026-05-04 09:35 -35.47203 140.12809 27637 ft 467 kts 119°
2026-05-04 09:35 -35.48537 140.16453 27897 ft 469 kts 119°
2026-05-04 09:35 -35.49890 140.20159 28184 ft 472 kts 119°
2026-05-04 09:35 -35.51235 140.23852 28453 ft 474 kts 119°
2026-05-04 09:37 -35.60753 140.50048 30486 ft 484 kts 119°
2026-05-04 09:37 -35.62119 140.53825 30757 ft 485 kts 119°
2026-05-04 09:38 -35.63492 140.57618 31032 ft 485 kts 119°
2026-05-04 09:38 -35.64866 140.61411 31302 ft 486 kts 119°
2026-05-04 09:38 -35.66238 140.65211 31587 ft 486 kts 118°
2026-05-04 09:38 -35.67613 140.69019 31827 ft 488 kts 118°
2026-05-04 09:39 -35.68986 140.72842 32070 ft 489 kts 118°
2026-05-04 09:39 -35.70360 140.76664 32331 ft 489 kts 118°
2026-05-04 09:39 -35.71740 140.80496 32583 ft 490 kts 118°
2026-05-04 09:39 -35.73115 140.84337 32836 ft 491 kts 118°
2026-05-04 09:40 -35.74488 140.88186 33118 ft 491 kts 118°
2026-05-04 09:40 -35.75863 140.92043 33335 ft 492 kts 118°
2026-05-04 09:40 -35.77239 140.95903 33582 ft 493 kts 118°
2026-05-04 09:40 -35.78623 140.99770 33818 ft 494 kts 118°
2026-05-04 09:41 -35.80009 141.03642 34048 ft 494 kts 118°
2026-05-04 09:42 -35.89693 141.31047 34983 ft 501 kts 117°
2026-05-04 09:43 -35.92471 141.38934 34971 ft 503 kts 116°
2026-05-04 09:43 -35.95271 141.46859 34978 ft 504 kts 116°
2026-05-04 09:44 -35.98056 141.54811 34974 ft 505 kts 116°
2026-05-04 09:46 -36.09152 141.86700 34989 ft 506 kts 116°
2026-05-04 09:46 -36.11923 141.94691 34979 ft 506 kts 116°
2026-05-04 09:47 -36.14683 142.02713 34975 ft 507 kts 116°
2026-05-04 09:49 -36.25704 142.34884 34967 ft 509 kts 116°
2026-05-04 09:51 -36.35326 142.63237 34935 ft 512 kts 115°
2026-05-04 09:51 -36.38050 142.71339 34936 ft 512 kts 115°
2026-05-04 09:52 -36.40796 142.79512 34953 ft 513 kts 115°
2026-05-04 09:52 -36.43563 142.87757 34946 ft 514 kts 115°
2026-05-04 09:53 -36.46310 142.95954 34944 ft 515 kts 115°
2026-05-04 09:53 -36.49050 143.04171 34953 ft 515 kts 115°
2026-05-04 09:54 -36.51784 143.12407 34942 ft 515 kts 115°
2026-05-04 09:54 -36.54512 143.20657 34943 ft 516 kts 115°
2026-05-04 09:55 -36.57238 143.28917 34939 ft 517 kts 114°
2026-05-04 09:55 -36.59945 143.37143 34934 ft 517 kts 114°
2026-05-04 09:56 -36.62669 143.45439 34935 ft 518 kts 114°
2026-05-04 09:56 -36.65391 143.53733 34949 ft 518 kts 114°
2026-05-04 09:57 -36.68106 143.62054 34942 ft 519 kts 114°
2026-05-04 09:57 -36.70809 143.70388 34939 ft 519 kts 113°
2026-05-04 09:57 -36.72163 143.74562 34704 ft 520 kts 114°
2026-05-04 09:58 -36.73531 143.78772 33749 ft 529 kts 113°
2026-05-04 09:58 -36.74918 143.83039 32829 ft 532 kts 113°
2026-05-04 09:58 -36.76308 143.87322 32031 ft 533 kts 112°
2026-05-04 10:00 -36.85565 144.16093 25586 ft 476 kts 112°
2026-05-04 10:00 -36.86777 144.19885 24532 ft 465 kts 112°
2026-05-04 10:02 -36.95699 144.42831 20979 ft 381 kts 134°
2026-05-04 10:04 -37.08406 144.61040 17891 ft 398 kts 133°
2026-05-04 10:04 -37.10238 144.63671 17426 ft 402 kts 133°
2026-05-04 10:04 -37.12073 144.66306 16966 ft 400 kts 133°
2026-05-04 10:04 -37.13894 144.68926 16495 ft 398 kts 134°
2026-05-04 10:05 -37.15881 144.71310 15747 ft 397 kts 145°
2026-05-04 10:05 -37.18179 144.73120 14909 ft 381 kts 159°
2026-05-04 10:05 -37.20626 144.74182 13998 ft 366 kts 171°
2026-05-04 10:05 -37.23085 144.74886 12899 ft 360 kts 172°
2026-05-04 10:06 -37.25514 144.75538 11776 ft 356 kts 172°
2026-05-04 10:06 -37.27930 144.76164 10593 ft 354 kts 172°
2026-05-04 10:06 -37.30339 144.76785 9562 ft 349 kts 172°
2026-05-04 10:08 -37.42357 144.79187 8989 ft 293 kts 178°
2026-05-04 10:08 -37.44379 144.79515 8992 ft 292 kts 179°
2026-05-04 10:08 -37.46384 144.79487 8995 ft 286 kts 194°
2026-05-04 10:08 -37.48284 144.78860 8997 ft 279 kts 206°
2026-05-04 10:09 -37.50099 144.77988 8968 ft 279 kts 206°
2026-05-04 10:09 -37.51911 144.77125 8277 ft 279 kts 206°
2026-05-04 10:09 -37.53723 144.76267 7516 ft 277 kts 206°
2026-05-04 10:09 -37.55532 144.75411 6984 ft 278 kts 206°
2026-05-04 10:10 -37.57328 144.74564 6631 ft 273 kts 206°
2026-05-04 10:10 -37.59149 144.73881 6123 ft 274 kts 195°
2026-05-04 10:10 -37.61034 144.73696 5980 ft 273 kts 189°
2026-05-04 10:10 -37.62934 144.73565 5464 ft 269 kts 190°
2026-05-04 10:11 -37.64729 144.73442 5249 ft 248 kts 190°
2026-05-04 10:11 -37.66393 144.73328 4958 ft 233 kts 191°
2026-05-04 10:11 -37.67972 144.73218 4757 ft 220 kts 191°
2026-05-04 10:11 -37.69468 144.73116 4569 ft 211 kts 192°
2026-05-04 10:12 -37.70918 144.73010 4324 ft 207 kts 191°
2026-05-04 10:12 -37.72353 144.72962 3999 ft 207 kts 190°
2026-05-04 10:12 -37.73787 144.72936 3700 ft 205 kts 191°
2026-05-04 10:12 -37.75190 144.72918 3535 ft 197 kts 190°
2026-05-04 10:13 -37.76537 144.73027 3376 ft 192 kts 183°
2026-05-04 10:13 -37.77917 144.73253 3265 ft 218 kts 182°
2026-05-04 10:13 -37.79540 144.73489 3086 ft 240 kts 181°
2026-05-04 10:13 -37.81162 144.73731 2958 ft 226 kts 182°
2026-05-04 10:14 -37.82658 144.73975 2974 ft 208 kts 181°
2026-05-04 10:14 -37.84024 144.74231 2979 ft 190 kts 182°
2026-05-04 10:16 -37.93999 144.75860 2972 ft 217 kts 182°
2026-05-04 10:16 -37.95507 144.76081 2965 ft 218 kts 181°
2026-05-04 10:16 -37.97018 144.76290 2966 ft 218 kts 182°
2026-05-04 10:16 -37.98525 144.76491 2966 ft 219 kts 182°
2026-05-04 10:17 -38.00040 144.76702 2969 ft 219 kts 182°
2026-05-04 10:17 -38.01555 144.76910 2971 ft 219 kts 182°
2026-05-04 10:19 -38.12170 144.78347 2970 ft 221 kts 182°
2026-05-04 10:19 -38.13701 144.78564 2964 ft 222 kts 182°
2026-05-04 10:19 -38.15239 144.78781 2956 ft 223 kts 182°
2026-05-04 10:19 -38.16763 144.78991 2951 ft 223 kts 182°
2026-05-04 10:20 -38.18323 144.79217 2953 ft 223 kts 182°
2026-05-04 10:20 -38.19865 144.79446 2946 ft 223 kts 182°
2026-05-04 10:20 -38.21406 144.79748 2938 ft 229 kts 172°
2026-05-04 10:20 -38.22770 144.80863 2939 ft 242 kts 135°
2026-05-04 10:21 -38.23505 144.82774 2937 ft 244 kts 98°
2026-05-04 10:21 -38.23386 144.84843 2935 ft 236 kts 68°
2026-05-04 10:21 -38.22854 144.86804 2932 ft 234 kts 63°
2026-05-04 10:21 -38.22274 144.88741 2931 ft 235 kts 62°
2026-05-04 10:22 -38.21097 144.92609 2934 ft 234 kts 62°
2026-05-04 10:22 -38.20510 144.94538 2936 ft 234 kts 63°
2026-05-04 10:22 -38.19907 144.96462 2939 ft 235 kts 62°
2026-05-04 10:23 -38.19306 144.98397 2934 ft 236 kts 62°
2026-05-04 10:23 -38.18714 145.00333 2938 ft 234 kts 62°
2026-05-04 10:25 -38.14851 145.13690 2953 ft 229 kts 62°
2026-05-04 10:25 -38.14312 145.15596 2953 ft 229 kts 62°
2026-05-04 10:25 -38.13773 145.17508 2953 ft 230 kts 62°
2026-05-04 10:25 -38.13231 145.19419 2951 ft 229 kts 62°
2026-05-04 10:26 -38.12683 145.21323 2949 ft 230 kts 62°
2026-05-04 10:26 -38.12137 145.23229 2946 ft 231 kts 62°
2026-05-04 10:26 -38.11592 145.25149 2948 ft 232 kts 62°
2026-05-04 10:26 -38.11043 145.27078 2961 ft 233 kts 62°
2026-05-04 10:27 -38.10499 145.29017 2958 ft 234 kts 62°
2026-05-04 10:27 -38.10116 145.31042 2946 ft 244 kts 83°
2026-05-04 10:27 -38.10550 145.33139 2955 ft 252 kts 119°
2026-05-04 10:27 -38.11766 145.34685 2955 ft 246 kts 155°
2026-05-04 10:28 -38.13353 145.35197 2960 ft 230 kts 191°
2026-05-04 10:28 -38.14773 145.34596 2950 ft 206 kts 226°
2026-05-04 10:28 -38.15645 145.33277 2959 ft 190 kts 249°
2026-05-04 10:28 -38.16270 145.31817 2954 ft 187 kts 252°
2026-05-04 10:29 -38.16870 145.30352 2951 ft 186 kts 252°
2026-05-04 10:29 -38.17454 145.28891 2957 ft 185 kts 252°
2026-05-04 10:29 -38.18043 145.27429 2958 ft 186 kts 252°
2026-05-04 10:29 -38.18635 145.25973 2956 ft 186 kts 252°
2026-05-04 10:30 -38.19213 145.24510 2944 ft 185 kts 252°
2026-05-04 10:30 -38.19781 145.23052 2950 ft 183 kts 252°
2026-05-04 10:30 -38.20345 145.21609 2950 ft 182 kts 252°
2026-05-04 10:30 -38.20906 145.20171 2952 ft 182 kts 252°
2026-05-04 10:31 -38.21467 145.18722 2952 ft 183 kts 252°
2026-05-04 10:31 -38.22030 145.17261 2951 ft 184 kts 252°
2026-05-04 10:32 -38.25460 145.08466 2948 ft 186 kts 252°
2026-05-04 10:33 -38.26043 145.06991 2946 ft 188 kts 252°
2026-05-04 10:33 -38.26640 145.05506 2946 ft 188 kts 252°
2026-05-04 10:33 -38.27237 145.04033 2942 ft 186 kts 251°
2026-05-04 10:33 -38.27816 145.02568 2943 ft 185 kts 252°
2026-05-04 10:34 -38.28391 145.01104 2946 ft 186 kts 252°
2026-05-04 10:34 -38.28962 144.99616 2943 ft 187 kts 252°
2026-05-04 10:34 -38.29510 144.98108 2942 ft 189 kts 252°
2026-05-04 10:34 -38.30056 144.96592 2942 ft 188 kts 252°
2026-05-04 10:35 -38.30593 144.95108 2944 ft 186 kts 252°
2026-05-04 10:35 -38.31141 144.93599 2944 ft 185 kts 252°
2026-05-04 10:35 -38.31675 144.92113 2938 ft 184 kts 253°
2026-05-04 10:35 -38.31881 144.90556 2934 ft 178 kts 277°
2026-05-04 10:36 -38.31624 144.89023 2942 ft 177 kts 286°
2026-05-04 10:36 -38.31265 144.87519 2941 ft 178 kts 288°
2026-05-04 10:36 -38.30897 144.86012 2941 ft 178 kts 287°
2026-05-04 10:36 -38.30540 144.84502 2941 ft 178 kts 287°
2026-05-04 10:37 -38.30191 144.82988 2940 ft 178 kts 286°
2026-05-04 10:37 -38.29851 144.81472 2938 ft 178 kts 286°
2026-05-04 10:37 -38.29513 144.79932 2933 ft 182 kts 286°
2026-05-04 10:37 -38.29168 144.78344 2932 ft 190 kts 285°
2026-05-04 10:39 -38.26935 144.67870 2952 ft 191 kts 285°
2026-05-04 10:39 -38.26610 144.66324 2953 ft 172 kts 285°
2026-05-04 10:39 -38.26318 144.64941 2967 ft 159 kts 285°
2026-05-04 10:40 -38.26037 144.63608 2967 ft 153 kts 285°
2026-05-04 10:40 -38.25764 144.62310 2968 ft 147 kts 285°
2026-05-04 10:40 -38.25504 144.61081 2967 ft 141 kts 284°
2026-05-04 10:40 -38.25256 144.59911 2966 ft 134 kts 284°
2026-05-04 10:41 -38.25020 144.58803 2965 ft 126 kts 284°
2026-05-04 10:41 -38.24724 144.57784 2953 ft 126 kts 301°
2026-05-04 10:41 -38.24035 144.57059 3384 ft 127 kts 319°
2026-05-04 10:41 -38.23351 144.56428 3214 ft 118 kts 308°
2026-05-04 10:42 -38.22804 144.55692 3020 ft 114 kts 303°
2026-05-04 10:42 -38.22348 144.54875 2926 ft 114 kts 298°
2026-05-04 10:42 -38.21902 144.54031 2937 ft 115 kts 300°
2026-05-04 10:42 -38.21396 144.53101 2997 ft 144 kts 301°
2026-05-04 10:43 -38.20756 144.51948 2990 ft 178 kts 302°
2026-05-04 10:44 -38.14796 144.45369 1860 ft 151 kts 339°
2026-05-04 10:45 -38.13777 144.45230 1695 ft 143 kts 347°
2026-05-04 10:45 -38.12795 144.45303 1473 ft 139 kts 353°
2026-05-04 10:45 -38.11836 144.45465 1297 ft 141 kts 357°
2026-05-04 10:45 -38.10861 144.45612 1092 ft 143 kts 356°
2026-05-04 10:46 -38.09877 144.45753 905 ft 141 kts 358°
2026-05-04 10:46 -38.08895 144.45907 685 ft 142 kts
2026-05-04 10:46 -38.07917 144.46102 522 ft 141 kts
2026-05-04 10:46 -38.06938 144.46240 334 ft 143 kts 359°
2026-05-04 10:47 -38.05935 144.46403 171 ft 142 kts 359°
2026-05-04 10:47 -38.04977 144.46567 37 ft 130 kts 357°
2026-05-04 10:47 -38.04217 144.46687 32 ft 95 kts
2026-05-04 10:47 -38.03680 144.46777 34 ft 59 kts
2026-05-04 10:49 -38.02802 144.47389 32 ft 16 kts 95°
2026-05-04 10:49 -38.02786 144.47466 32 ft 3 kts 20°
2026-05-04 10:50 -38.02763 144.47472 32 ft 1 kts